Tracking 29489 objects as of 10-Sep-2024
HD Live streaming from Space Station
objects crossing your sky now

GRIFEX


GRIFEX is no longer on orbit
GRIFEX is classified as:


NORAD ID: 40379
Int'l Code: 2015-003D
Perigee: N/A
Apogee: N/A
Inclination: N/A
Period: N/A
Semi major axis: N/A
RCS: N/A
Launch date: January 31, 2015
Source: United States (US)
Launch site: AIR FORCE WESTERN TEST RANGE (AFWTR)
Decay date: 2024-02-24

Uplink (MHz):
Downlink (MHz): 437.480
Beacon (MHz):
Mode: 9k6*/19k2bps GMSK
Call sign: KD8SPS
Status: Reentered

Your satellite tracking list
Your tracking list is empty




NASA's NSSDC Master Catalog

Two Line Element Set (TLE):
1 40379U 15003D   24052.92188328  .09430395  37124-5  76406-3 0  9997
2 40379  99.0545  64.0391 0006905 151.9068 208.2600 16.39942224502311
Source of the keplerian elements: Caltech